Weather History for KCEU - March, 2013

Change the Weather History Date:

Wednesday, March 6, 2013

  Actual Average Record
Temperature  
Mean Temperature 41 °F -  
Max Temperature 48 °F 62 °F 78 °F (1945)
Min Temperature 34 °F 37 °F 12 °F (1960)
Degree Days  
Heating Degree Days 24    
Moisture  
Dew Point 22 °F    
Average Humidity 48    
Maximum Humidity 67    
Minimum Humidity 34    
Precipitation  
Precipitation 0.00 in - - ()
Sea Level Pressure  
Sea Level Pressure 29.95 in    
Wind  
Wind Speed 16 mph (WNW)    
Max Wind Speed 26 mph    
Max Gust Speed 38 mph    
Visibility 10 miles    
Events      
Averages and records for this station are not official NWS values.
T = Trace of Precipitation, MM = Missing Value Source: NWS Daily Summary

Daily Weather History Graph

Daily Weather History Graph

Search for Another Location

Airport or City:

Trip Planner

Search our weather history database for the weather conditions in past years. The results will help you decide how hot, cold, wet, or windy it might be!

Date:

Astronomy

Mar. 06, 2013 Rise Set
Actual Time 6:53 AM EST 6:31 PM EST
Civil Twilight 6:28 AM EST 6:57 PM EST
Nautical Twilight 5:59 AM EST 7:26 PM EST
Astronomical Twilight 5:30 AM EST 7:55 PM EST
Moon 2:51 AM EST 1:22 PM EST
Length of Visible Light 12h 28m
Length of Day
11h 38m
Waning Crescent, 30% of the Moon is Illuminated
Mar 6
Waning Crescent
Mar 11
New
Mar 19
First Quarter
Mar 27
Full
Apr 3
Last Quarter

Hourly Weather History & Observations

Time (EST) Temp. Windchill Dew Point Humidity Pressure Visibility Wind Dir Wind Speed Gust Speed Precip Events Conditions
12:54 AM 39.9 °F 29.0 °F 24.1 °F 53% 29.78 in 10.0 mi West 26.5 mph 38.0 mph N/A   Mostly Cloudy
1:54 AM 39.9 °F 32.1 °F 23.0 °F 51% 29.79 in 10.0 mi West 13.8 mph 27.6 mph N/A   Mostly Cloudy
2:54 AM 37.9 °F 27.6 °F 23.0 °F 55% 29.78 in 10.0 mi West 20.7 mph 29.9 mph N/A   Clear
3:54 AM 37.0 °F 27.4 °F 19.0 °F 48% 29.78 in 10.0 mi West 17.3 mph 25.3 mph N/A   Clear
4:54 AM 35.1 °F 24.8 °F 17.1 °F 48% 29.80 in 10.0 mi West 17.3 mph 23.0 mph N/A   Scattered Clouds
5:54 AM 34.0 °F 24.2 °F 18.0 °F 52% 29.85 in 10.0 mi West 15.0 mph - N/A   Clear
6:54 AM 34.0 °F 26.6 °F 18.0 °F 52% 29.86 in 10.0 mi West 9.2 mph - N/A   Partly Cloudy
7:54 AM 35.1 °F 27.4 °F 19.9 °F 54% 29.88 in 10.0 mi West 10.4 mph - N/A   Clear
8:54 AM 37.0 °F 28.9 °F 19.9 °F 50% 29.88 in 10.0 mi West 12.7 mph 24.2 mph N/A   Clear
9:54 AM 42.1 °F 34.2 °F 19.9 °F 41% 29.91 in 10.0 mi West 16.1 mph 23.0 mph N/A   Partly Cloudy
10:54 AM 45.0 °F 36.9 °F 18.0 °F 34% 29.93 in 10.0 mi WNW 20.7 mph 28.8 mph N/A   Clear
11:54 AM 46.0 °F 38.8 °F 19.9 °F 35% 29.94 in 10.0 mi NW 18.4 mph 27.6 mph N/A   Mostly Cloudy
12:54 PM 44.1 °F 35.9 °F 19.9 °F 38% 29.97 in 10.0 mi NW 19.6 mph 35.7 mph N/A   Scattered Clouds
1:54 PM 48.0 °F - 21.9 °F 36% 29.97 in 10.0 mi NW 19.6 mph 27.6 mph N/A   Partly Cloudy
2:54 PM 46.9 °F - 21.9 °F 37% 29.98 in 10.0 mi NW 15.0 mph 27.6 mph N/A   Clear
3:54 PM 46.9 °F - 23.0 °F 39% 30.00 in 10.0 mi WNW 15.0 mph 29.9 mph N/A   Clear
4:54 PM 46.0 °F 39.3 °F 23.0 °F 40% 30.02 in 10.0 mi WNW 16.1 mph 25.3 mph N/A   Clear
5:54 PM 45.0 °F 38.5 °F 24.1 °F 44% 30.05 in 10.0 mi NW 13.8 mph 21.9 mph N/A   Clear
6:54 PM 42.1 °F 37.1 °F 24.1 °F 49% 30.09 in 10.0 mi WNW 8.1 mph - N/A   Clear
7:54 PM 39.9 °F 35.8 °F 25.0 °F 55% 30.10 in 10.0 mi WNW 5.8 mph - N/A   Clear
8:54 PM 39.0 °F 35.7 °F 24.1 °F 55% 30.12 in 10.0 mi NNW 4.6 mph - N/A   Clear
9:54 PM 37.0 °F 33.3 °F 25.0 °F 62% 30.12 in 10.0 mi NW 4.6 mph - N/A   Clear
10:54 PM 37.0 °F - 24.1 °F 59% 30.13 in 10.0 mi Calm Calm - N/A   Clear
11:54 PM 35.1 °F - 25.0 °F 67% 30.14 in 10.0 mi Calm Calm - N/A   Clear